iso_date,Year,Hour,Min,DOY,POS_DOY,Lat,Lon,BP,Ts,Ta,has_bp,has_ts,has_ta,BuoyID,Buoy_Type,Buoy_Owner,Logistics,Hemisphere
2021-07-23T19:34:01Z,2021,19,34,204.8153,204.8153,59.005,-167.59,1019.5,8.78,-999.0,yes,yes,no,300234068484010,BD2GI,AOML,HEALY,North
2021-07-23T19:59:57Z,2021,20,0,204.8333,204.8333,59.003,-167.593,1019.6,8.74,-999.0,yes,yes,no,300234068484010,BD2GI,AOML,HEALY,North
2021-07-23T21:00:00Z,2021,21,0,204.875,204.875,58.999,-167.613,1019.7,9.09,-999.0,yes,yes,no,300234068484010,BD2GI,AOML,HEALY,North
2021-07-23T22:00:02Z,2021,22,0,204.9167,204.9167,58.999,-167.642,1019.7,9.17,-999.0,yes,yes,no,300234068484010,BD2GI,AOML,HEALY,North
2021-07-23T22:59:57Z,2021,23,0,204.9583,204.9583,59.004,-167.675,1020.1,9.24,-999.0,yes,yes,no,300234068484010,BD2GI,AOML,HEALY,North
2021-07-24T00:00:00Z,2021,0,0,205.0,205.0,59.013,-167.704,1020.0,9.32,-999.0,yes,yes,no,300234068484010,BD2GI,AOML,HEALY,North
2021-07-24T01:00:02Z,2021,1,0,205.0417,205.0417,59.027,-167.725,1020.0,9.36,-999.0,yes,yes,no,300234068484010,BD2GI,AOML,HEALY,North
2021-07-24T01:59:57Z,2021,2,0,205.0833,205.0833,59.042,-167.734,1020.0,9.25,-999.0,yes,yes,no,300234068484010,BD2GI,AOML,HEALY,North
2021-07-24T03:00:00Z,2021,3,0,205.125,205.125,59.057,-167.731,1020.0,9.19,-999.0,yes,yes,no,300234068484010,BD2GI,AOML,HEALY,North
2021-07-24T04:00:02Z,2021,4,0,205.1667,205.1667,59.07,-167.716,1019.7,9.16,-999.0,yes,yes,no,300234068484010,BD2GI,AOML,HEALY,North
2021-07-24T04:59:57Z,2021,5,0,205.2083,205.2083,59.077,-167.694,1019.8,9.07,-999.0,yes,yes,no,300234068484010,BD2GI,AOML,HEALY,North
2021-07-24T06:00:00Z,2021,6,0,205.25,205.25,59.077,-167.669,1019.8,9.04,-999.0,yes,yes,no,300234068484010,BD2GI,AOML,HEALY,North
2021-07-24T07:00:02Z,2021,7,0,205.2917,205.2917,59.071,-167.645,1020.0,8.98,-999.0,yes,yes,no,300234068484010,BD2GI,AOML,HEALY,North
2021-07-24T07:59:57Z,2021,8,0,205.3333,205.3333,59.059,-167.626,1020.1,8.92,-999.0,yes,yes,no,300234068484010,BD2GI,AOML,HEALY,North
2021-07-24T09:00:00Z,2021,9,0,205.375,205.375,59.044,-167.616,1020.2,8.94,-999.0,yes,yes,no,300234068484010,BD2GI,AOML,HEALY,North
2021-07-24T10:00:02Z,2021,10,0,205.4167,205.4167,59.028,-167.614,1020.6,9.11,-999.0,yes,yes,no,300234068484010,BD2GI,AOML,HEALY,North
2021-07-24T10:59:57Z,2021,11,0,205.4583,205.4583,59.015,-167.62,1020.7,9.2,-999.0,yes,yes,no,300234068484010,BD2GI,AOML,HEALY,North
2021-07-24T12:00:00Z,2021,12,0,205.5,205.5,59.006,-167.627,1020.8,9.19,-999.0,yes,yes,no,300234068484010,BD2GI,AOML,HEALY,North
2021-07-24T13:00:02Z,2021,13,0,205.5417,205.5417,59.001,-167.631,1020.9,9.11,-999.0,yes,yes,no,300234068484010,BD2GI,AOML,HEALY,North
2021-07-24T13:59:57Z,2021,14,0,205.5833,205.5833,59.002,-167.63,1020.9,9.04,-999.0,yes,yes,no,300234068484010,BD2GI,AOML,HEALY,North
2021-07-24T15:00:00Z,2021,15,0,205.625,205.625,59.005,-167.622,1020.7,8.99,-999.0,yes,yes,no,300234068484010,BD2GI,AOML,HEALY,North
2021-07-24T16:00:02Z,2021,16,0,205.6667,205.6667,59.009,-167.607,1020.6,8.95,-999.0,yes,yes,no,300234068484010,BD2GI,AOML,HEALY,North
2021-07-24T16:59:57Z,2021,17,0,205.7083,205.7083,59.012,-167.589,1020.7,8.95,-999.0,yes,yes,no,300234068484010,BD2GI,AOML,HEALY,North
2021-07-24T18:00:00Z,2021,18,0,205.75,205.75,59.013,-167.571,1020.8,8.85,-999.0,yes,yes,no,300234068484010,BD2GI,AOML,HEALY,North
2021-07-24T19:00:02Z,2021,19,0,205.7917,205.7917,59.011,-167.558,1020.9,8.82,-999.0,yes,yes,no,300234068484010,BD2GI,AOML,HEALY,North
2021-07-24T19:59:57Z,2021,20,0,205.8333,205.8333,59.006,-167.556,1021.0,8.89,-999.0,yes,yes,no,300234068484010,BD2GI,AOML,HEALY,North
2021-07-24T21:00:00Z,2021,21,0,205.875,205.875,59.0,-167.567,1021.1,8.93,-999.0,yes,yes,no,300234068484010,BD2GI,AOML,HEALY,North
2021-07-24T22:00:02Z,2021,22,0,205.9167,205.9167,58.996,-167.587,1021.1,9.21,-999.0,yes,yes,no,300234068484010,BD2GI,AOML,HEALY,North
2021-07-24T22:59:57Z,2021,23,0,205.9583,205.9583,58.995,-167.617,1020.9,9.42,-999.0,yes,yes,no,300234068484010,BD2GI,AOML,HEALY,North
2021-07-25T00:00:00Z,2021,0,0,206.0,206.0,58.999,-167.65,1020.3,9.23,-999.0,yes,yes,no,300234068484010,BD2GI,AOML,HEALY,North
2021-07-25T01:00:02Z,2021,1,0,206.0417,206.0417,59.008,-167.68,1020.5,9.56,-999.0,yes,yes,no,300234068484010,BD2GI,AOML,HEALY,North
2021-07-25T01:59:57Z,2021,2,0,206.0833,206.0833,59.022,-167.702,1020.3,9.68,-999.0,yes,yes,no,300234068484010,BD2GI,AOML,HEALY,North
2021-07-25T03:00:00Z,2021,3,0,206.125,206.125,59.038,-167.71,1019.7,9.84,-999.0,yes,yes,no,300234068484010,BD2GI,AOML,HEALY,North
2021-07-25T04:00:02Z,2021,4,0,206.1667,206.1667,59.053,-167.706,1019.1,9.68,-999.0,yes,yes,no,300234068484010,BD2GI,AOML,HEALY,North
2021-07-25T04:59:57Z,2021,5,0,206.2083,206.2083,59.065,-167.691,1018.6,9.48,-999.0,yes,yes,no,300234068484010,BD2GI,AOML,HEALY,North
2021-07-25T06:00:00Z,2021,6,0,206.25,206.25,59.072,-167.669,1018.4,9.31,-999.0,yes,yes,no,300234068484010,BD2GI,AOML,HEALY,North
2021-07-25T07:00:02Z,2021,7,0,206.2917,206.2917,59.072,-167.643,1018.7,9.21,-999.0,yes,yes,no,300234068484010,BD2GI,AOML,HEALY,North
2021-07-25T07:59:57Z,2021,8,0,206.3333,206.3333,59.067,-167.62,1018.4,9.09,-999.0,yes,yes,no,300234068484010,BD2GI,AOML,HEALY,North
2021-07-25T09:00:00Z,2021,9,0,206.375,206.375,59.055,-167.602,1017.9,9.07,-999.0,yes,yes,no,300234068484010,BD2GI,AOML,HEALY,North
2021-07-25T10:00:02Z,2021,10,0,206.4167,206.4167,59.041,-167.593,1017.6,9.02,-999.0,yes,yes,no,300234068484010,BD2GI,AOML,HEALY,North
2021-07-25T10:59:57Z,2021,11,0,206.4583,206.4583,59.026,-167.593,1017.2,9.09,-999.0,yes,yes,no,300234068484010,BD2GI,AOML,HEALY,North
2021-07-25T12:00:00Z,2021,12,0,206.5,206.5,59.014,-167.599,1016.7,9.28,-999.0,yes,yes,no,300234068484010,BD2GI,AOML,HEALY,North
2021-07-25T13:00:02Z,2021,13,0,206.5417,206.5417,59.007,-167.608,1016.3,9.34,-999.0,yes,yes,no,300234068484010,BD2GI,AOML,HEALY,North
2021-07-25T13:59:57Z,2021,14,0,206.5833,206.5833,59.006,-167.614,1015.8,9.27,-999.0,yes,yes,no,300234068484010,BD2GI,AOML,HEALY,North
2021-07-25T15:00:00Z,2021,15,0,206.625,206.625,59.009,-167.614,1015.4,9.18,-999.0,yes,yes,no,300234068484010,BD2GI,AOML,HEALY,North
2021-07-25T16:00:02Z,2021,16,0,206.6667,206.6667,59.015,-167.605,1015.1,9.05,-999.0,yes,yes,no,300234068484010,BD2GI,AOML,HEALY,North
2021-07-25T16:59:57Z,2021,17,0,206.7083,206.7083,59.021,-167.591,1014.7,8.98,-999.0,yes,yes,no,300234068484010,BD2GI,AOML,HEALY,North
2021-07-25T18:00:00Z,2021,18,0,206.75,206.75,59.026,-167.573,1014.4,8.92,-999.0,yes,yes,no,300234068484010,BD2GI,AOML,HEALY,North
2021-07-25T19:00:02Z,2021,19,0,206.7917,206.7917,59.027,-167.555,1014.1,8.93,-999.0,yes,yes,no,300234068484010,BD2GI,AOML,HEALY,North
2021-07-25T19:59:57Z,2021,20,0,206.8333,206.8333,59.026,-167.543,1014.3,8.96,-999.0,yes,yes,no,300234068484010,BD2GI,AOML,HEALY,North
2021-07-25T21:00:00Z,2021,21,0,206.875,206.875,59.022,-167.542,1014.2,9.03,-999.0,yes,yes,no,300234068484010,BD2GI,AOML,HEALY,North
2021-07-25T22:00:02Z,2021,22,0,206.9167,206.9167,59.018,-167.551,1014.0,9.15,-999.0,yes,yes,no,300234068484010,BD2GI,AOML,HEALY,North
2021-07-25T22:59:57Z,2021,23,0,206.9583,206.9583,59.014,-167.571,1013.8,9.24,-999.0,yes,yes,no,300234068484010,BD2GI,AOML,HEALY,North
2021-07-26T00:00:00Z,2021,0,0,207.0,207.0,59.014,-167.599,1013.9,9.35,-999.0,yes,yes,no,300234068484010,BD2GI,AOML,HEALY,North
2021-07-26T01:00:02Z,2021,1,0,207.0417,207.0417,59.018,-167.63,1013.9,9.46,-999.0,yes,yes,no,300234068484010,BD2GI,AOML,HEALY,North
2021-07-26T01:59:57Z,2021,2,0,207.0833,207.0833,59.027,-167.658,1013.9,9.52,-999.0,yes,yes,no,300234068484010,BD2GI,AOML,HEALY,North
2021-07-26T03:00:00Z,2021,3,0,207.125,207.125,59.041,-167.675,1013.8,9.54,-999.0,yes,yes,no,300234068484010,BD2GI,AOML,HEALY,North
2021-07-26T04:00:02Z,2021,4,0,207.1667,207.1667,59.056,-167.682,1013.7,9.53,-999.0,yes,yes,no,300234068484010,BD2GI,AOML,HEALY,North
2021-07-26T04:59:57Z,2021,5,0,207.2083,207.2083,59.071,-167.675,1013.6,9.52,-999.0,yes,yes,no,300234068484010,BD2GI,AOML,HEALY,North
2021-07-26T06:00:00Z,2021,6,0,207.25,207.25,59.081,-167.659,1013.5,9.5,-999.0,yes,yes,no,300234068484010,BD2GI,AOML,HEALY,North
2021-07-26T07:00:02Z,2021,7,0,207.2917,207.2917,59.086,-167.637,1013.7,9.47,-999.0,yes,yes,no,300234068484010,BD2GI,AOML,HEALY,North
2021-07-26T07:59:57Z,2021,8,0,207.3333,207.3333,59.085,-167.612,1013.9,9.47,-999.0,yes,yes,no,300234068484010,BD2GI,AOML,HEALY,North
2021-07-26T09:00:00Z,2021,9,0,207.375,207.375,59.079,-167.589,1014.0,9.36,-999.0,yes,yes,no,300234068484010,BD2GI,AOML,HEALY,North
2021-07-26T10:00:02Z,2021,10,0,207.4167,207.4167,59.068,-167.573,1014.2,9.19,-999.0,yes,yes,no,300234068484010,BD2GI,AOML,HEALY,North
2021-07-26T10:59:57Z,2021,11,0,207.4583,207.4583,59.054,-167.566,1014.1,9.09,-999.0,yes,yes,no,300234068484010,BD2GI,AOML,HEALY,North
2021-07-26T12:00:00Z,2021,12,0,207.5,207.5,59.041,-167.568,1014.0,9.17,-999.0,yes,yes,no,300234068484010,BD2GI,AOML,HEALY,North
2021-07-26T13:00:02Z,2021,13,0,207.5417,207.5417,59.03,-167.576,1013.8,9.29,-999.0,yes,yes,no,300234068484010,BD2GI,AOML,HEALY,North
2021-07-26T13:59:57Z,2021,14,0,207.5833,207.5833,59.024,-167.587,1013.8,9.34,-999.0,yes,yes,no,300234068484010,BD2GI,AOML,HEALY,North
2021-07-26T15:00:00Z,2021,15,0,207.625,207.625,59.023,-167.595,1013.7,9.38,-999.0,yes,yes,no,300234068484010,BD2GI,AOML,HEALY,North
2021-07-26T16:00:02Z,2021,16,0,207.6667,207.6667,59.026,-167.598,1013.7,9.34,-999.0,yes,yes,no,300234068484010,BD2GI,AOML,HEALY,North
2021-07-26T16:59:57Z,2021,17,0,207.7083,207.7083,59.033,-167.592,1013.6,9.32,-999.0,yes,yes,no,300234068484010,BD2GI,AOML,HEALY,North
2021-07-26T18:00:00Z,2021,18,0,207.75,207.75,59.04,-167.58,1013.3,9.34,-999.0,yes,yes,no,300234068484010,BD2GI,AOML,HEALY,North
2021-07-26T19:00:02Z,2021,19,0,207.7917,207.7917,59.045,-167.566,1013.3,9.28,-999.0,yes,yes,no,300234068484010,BD2GI,AOML,HEALY,North
2021-07-26T19:59:57Z,2021,20,0,207.8333,207.8333,59.047,-167.549,1013.3,9.2,-999.0,yes,yes,no,300234068484010,BD2GI,AOML,HEALY,North
2021-07-26T21:00:00Z,2021,21,0,207.875,207.875,59.046,-167.54,1013.7,9.23,-999.0,yes,yes,no,300234068484010,BD2GI,AOML,HEALY,North
2021-07-26T22:00:02Z,2021,22,0,207.9167,207.9167,59.042,-167.539,1013.6,9.03,-999.0,yes,yes,no,300234068484010,BD2GI,AOML,HEALY,North
2021-07-26T22:59:57Z,2021,23,0,207.9583,207.9583,59.038,-167.548,1013.5,8.52,-999.0,yes,yes,no,300234068484010,BD2GI,AOML,HEALY,North
2021-07-27T00:00:00Z,2021,0,0,208.0,208.0,59.034,-167.567,1013.6,8.3,-999.0,yes,yes,no,300234068484010,BD2GI,AOML,HEALY,North
2021-07-27T01:00:02Z,2021,1,0,208.0417,208.0417,59.033,-167.592,1013.5,7.99,-999.0,yes,yes,no,300234068484010,BD2GI,AOML,HEALY,North
2021-07-27T01:59:57Z,2021,2,0,208.0833,208.0833,59.037,-167.62,1013.3,7.95,-999.0,yes,yes,no,300234068484010,BD2GI,AOML,HEALY,North
2021-07-27T03:00:00Z,2021,3,0,208.125,208.125,59.045,-167.645,1013.0,8.05,-999.0,yes,yes,no,300234068484010,BD2GI,AOML,HEALY,North
2021-07-27T04:00:02Z,2021,4,0,208.1667,208.1667,59.057,-167.661,1012.8,8.18,-999.0,yes,yes,no,300234068484010,BD2GI,AOML,HEALY,North
2021-07-27T04:59:57Z,2021,5,0,208.2083,208.2083,59.071,-167.664,1012.5,8.32,-999.0,yes,yes,no,300234068484010,BD2GI,AOML,HEALY,North
2021-07-27T06:00:00Z,2021,6,0,208.25,208.25,59.085,-167.655,1012.1,8.31,-999.0,yes,yes,no,300234068484010,BD2GI,AOML,HEALY,North
2021-07-27T07:00:02Z,2021,7,0,208.2917,208.2917,59.094,-167.637,1012.2,8.21,-999.0,yes,yes,no,300234068484010,BD2GI,AOML,HEALY,North
2021-07-27T07:59:57Z,2021,8,0,208.3333,208.3333,59.098,-167.613,1012.0,7.8,-999.0,yes,yes,no,300234068484010,BD2GI,AOML,HEALY,North
2021-07-27T09:00:00Z,2021,9,0,208.375,208.375,59.097,-167.587,1012.1,7.43,-999.0,yes,yes,no,300234068484010,BD2GI,AOML,HEALY,North
2021-07-27T10:00:02Z,2021,10,0,208.4167,208.4167,59.089,-167.565,1011.8,7.29,-999.0,yes,yes,no,300234068484010,BD2GI,AOML,HEALY,North
2021-07-27T10:59:57Z,2021,11,0,208.4583,208.4583,59.077,-167.548,1011.6,7.21,-999.0,yes,yes,no,300234068484010,BD2GI,AOML,HEALY,North
2021-07-27T12:00:00Z,2021,12,0,208.5,208.5,59.062,-167.541,1011.4,7.25,-999.0,yes,yes,no,300234068484010,BD2GI,AOML,HEALY,North
2021-07-27T13:00:02Z,2021,13,0,208.5417,208.5417,59.048,-167.543,1011.5,7.25,-999.0,yes,yes,no,300234068484010,BD2GI,AOML,HEALY,North
2021-07-27T13:59:57Z,2021,14,0,208.5833,208.5833,59.036,-167.552,1011.2,7.47,-999.0,yes,yes,no,300234068484010,BD2GI,AOML,HEALY,North
2021-07-27T15:00:00Z,2021,15,0,208.625,208.625,59.029,-167.566,1011.0,7.53,-999.0,yes,yes,no,300234068484010,BD2GI,AOML,HEALY,North
2021-07-27T16:00:02Z,2021,16,0,208.6667,208.6667,59.029,-167.577,1010.7,7.49,-999.0,yes,yes,no,300234068484010,BD2GI,AOML,HEALY,North
2021-07-27T16:59:57Z,2021,17,0,208.7083,208.7083,59.034,-167.581,1010.7,7.44,-999.0,yes,yes,no,300234068484010,BD2GI,AOML,HEALY,North
2021-07-27T18:00:00Z,2021,18,0,208.75,208.75,59.042,-167.577,1010.6,7.41,-999.0,yes,yes,no,300234068484010,BD2GI,AOML,HEALY,North
2021-07-27T19:00:02Z,2021,19,0,208.7917,208.7917,59.05,-167.565,1010.5,7.4,-999.0,yes,yes,no,300234068484010,BD2GI,AOML,HEALY,North
2021-07-27T19:59:57Z,2021,20,0,208.8333,208.8333,59.056,-167.549,1010.5,7.42,-999.0,yes,yes,no,300234068484010,BD2GI,AOML,HEALY,North
2021-07-27T21:00:00Z,2021,21,0,208.875,208.875,59.06,-167.531,1010.6,7.43,-999.0,yes,yes,no,300234068484010,BD2GI,AOML,HEALY,North
2021-07-27T22:00:02Z,2021,22,0,208.9167,208.9167,59.06,-167.517,1010.4,7.39,-999.0,yes,yes,no,300234068484010,BD2GI,AOML,HEALY,North
2021-07-27T22:59:57Z,2021,23,0,208.9583,208.9583,59.057,-167.509,1010.4,7.36,-999.0,yes,yes,no,300234068484010,BD2GI,AOML,HEALY,North
2021-07-28T00:00:00Z,2021,0,0,209.0,209.0,59.052,-167.51,1010.2,7.36,-999.0,yes,yes,no,300234068484010,BD2GI,AOML,HEALY,North
2021-07-28T01:00:02Z,2021,1,0,209.0417,209.0417,59.049,-167.52,1010.0,7.36,-999.0,yes,yes,no,300234068484010,BD2GI,AOML,HEALY,North
2021-07-28T01:59:57Z,2021,2,0,209.0833,209.0833,59.047,-167.537,1009.7,7.35,-999.0,yes,yes,no,300234068484010,BD2GI,AOML,HEALY,North
2021-07-28T03:00:00Z,2021,3,0,209.125,209.125,59.049,-167.557,1009.5,7.35,-999.0,yes,yes,no,300234068484010,BD2GI,AOML,HEALY,North
2021-07-28T04:00:02Z,2021,4,0,209.1667,209.1667,59.056,-167.575,1009.3,7.36,-999.0,yes,yes,no,300234068484010,BD2GI,AOML,HEALY,North
2021-07-28T04:59:57Z,2021,5,0,209.2083,209.2083,59.068,-167.586,1009.0,7.35,-999.0,yes,yes,no,300234068484010,BD2GI,AOML,HEALY,North
2021-07-28T06:00:00Z,2021,6,0,209.25,209.25,59.081,-167.585,1008.7,7.34,-999.0,yes,yes,no,300234068484010,BD2GI,AOML,HEALY,North
2021-07-28T07:00:02Z,2021,7,0,209.2917,209.2917,59.093,-167.571,1008.6,7.29,-999.0,yes,yes,no,300234068484010,BD2GI,AOML,HEALY,North
2021-07-28T07:59:57Z,2021,8,0,209.3333,209.3333,59.1,-167.549,1008.9,7.26,-999.0,yes,yes,no,300234068484010,BD2GI,AOML,HEALY,North
2021-07-28T09:00:00Z,2021,9,0,209.375,209.375,59.104,-167.521,1008.8,7.26,-999.0,yes,yes,no,300234068484010,BD2GI,AOML,HEALY,North
2021-07-28T10:00:02Z,2021,10,0,209.4167,209.4167,59.102,-167.494,1008.8,7.26,-999.0,yes,yes,no,300234068484010,BD2GI,AOML,HEALY,North
2021-07-28T10:59:57Z,2021,11,0,209.4583,209.4583,59.094,-167.471,1008.6,7.25,-999.0,yes,yes,no,300234068484010,BD2GI,AOML,HEALY,North
2021-07-28T12:00:00Z,2021,12,0,209.5,209.5,59.083,-167.455,1008.4,7.25,-999.0,yes,yes,no,300234068484010,BD2GI,AOML,HEALY,North
2021-07-28T13:00:02Z,2021,13,0,209.5417,209.5417,59.07,-167.449,1008.3,7.25,-999.0,yes,yes,no,300234068484010,BD2GI,AOML,HEALY,North
2021-07-28T13:59:57Z,2021,14,0,209.5833,209.5833,59.07,-167.449,1008.1,7.25,-999.0,yes,yes,no,300234068484010,BD2GI,AOML,HEALY,North
2021-07-28T15:00:00Z,2021,15,0,209.625,209.625,59.05,-167.461,1007.8,7.27,-999.0,yes,yes,no,300234068484010,BD2GI,AOML,HEALY,North
2021-07-28T16:00:02Z,2021,16,0,209.6667,209.6667,59.048,-167.472,1007.8,7.27,-999.0,yes,yes,no,300234068484010,BD2GI,AOML,HEALY,North
2021-07-28T16:59:57Z,2021,17,0,209.7083,209.7083,59.05,-167.479,1008.1,7.27,-999.0,yes,yes,no,300234068484010,BD2GI,AOML,HEALY,North
2021-07-28T18:00:00Z,2021,18,0,209.75,209.75,59.056,-167.48,1008.0,7.26,-999.0,yes,yes,no,300234068484010,BD2GI,AOML,HEALY,North
2021-07-28T19:00:02Z,2021,19,0,209.7917,209.7917,59.064,-167.472,1008.1,7.28,-999.0,yes,yes,no,300234068484010,BD2GI,AOML,HEALY,North
2021-07-28T19:59:57Z,2021,20,0,209.8333,209.8333,59.072,-167.457,1008.2,7.28,-999.0,yes,yes,no,300234068484010,BD2GI,AOML,HEALY,North
2021-07-28T21:00:00Z,2021,21,0,209.875,209.875,59.078,-167.44,1008.3,7.29,-999.0,yes,yes,no,300234068484010,BD2GI,AOML,HEALY,North
2021-07-28T22:00:02Z,2021,22,0,209.9167,209.9167,59.08,-167.423,1008.4,7.29,-999.0,yes,yes,no,300234068484010,BD2GI,AOML,HEALY,North
2021-07-28T22:59:57Z,2021,23,0,209.9583,209.9583,59.08,-167.411,1008.4,7.31,-999.0,yes,yes,no,300234068484010,BD2GI,AOML,HEALY,North
2021-07-29T00:00:00Z,2021,0,0,210.0,210.0,59.076,-167.406,1008.5,7.3,-999.0,yes,yes,no,300234068484010,BD2GI,AOML,HEALY,North
2021-07-29T01:00:02Z,2021,1,0,210.0417,210.0417,59.071,-167.411,1008.7,7.32,-999.0,yes,yes,no,300234068484010,BD2GI,AOML,HEALY,North
2021-07-29T01:59:57Z,2021,2,0,210.0833,210.0833,59.066,-167.423,1008.9,7.32,-999.0,yes,yes,no,300234068484010,BD2GI,AOML,HEALY,North
2021-07-29T03:00:00Z,2021,3,0,210.125,210.125,59.064,-167.44,1009.1,7.32,-999.0,yes,yes,no,300234068484010,BD2GI,AOML,HEALY,North
2021-07-29T04:00:02Z,2021,4,0,210.1667,210.1667,59.066,-167.46,1009.3,7.33,-999.0,yes,yes,no,300234068484010,BD2GI,AOML,HEALY,North
2021-07-29T04:59:57Z,2021,5,0,210.2083,210.2083,59.072,-167.476,1009.3,7.32,-999.0,yes,yes,no,300234068484010,BD2GI,AOML,HEALY,North
2021-07-29T06:00:00Z,2021,6,0,210.25,210.25,59.081,-167.484,1009.4,7.32,-999.0,yes,yes,no,300234068484010,BD2GI,AOML,HEALY,North
2021-07-29T07:00:02Z,2021,7,0,210.2917,210.2917,59.09,-167.481,1009.9,7.33,-999.0,yes,yes,no,300234068484010,BD2GI,AOML,HEALY,North
2021-07-29T07:59:57Z,2021,8,0,210.3333,210.3333,59.099,-167.466,1010.1,7.33,-999.0,yes,yes,no,300234068484010,BD2GI,AOML,HEALY,North
2021-07-29T09:00:00Z,2021,9,0,210.375,210.375,59.104,-167.446,1010.1,7.34,-999.0,yes,yes,no,300234068484010,BD2GI,AOML,HEALY,North
2021-07-29T10:00:02Z,2021,10,0,210.4167,210.4167,59.105,-167.423,1010.3,7.35,-999.0,yes,yes,no,300234068484010,BD2GI,AOML,HEALY,North
2021-07-29T10:59:57Z,2021,11,0,210.4583,210.4583,59.101,-167.398,1010.4,7.35,-999.0,yes,yes,no,300234068484010,BD2GI,AOML,HEALY,North
2021-07-29T12:00:00Z,2021,12,0,210.5,210.5,59.093,-167.381,1010.4,7.37,-999.0,yes,yes,no,300234068484010,BD2GI,AOML,HEALY,North
2021-07-29T13:00:02Z,2021,13,0,210.5417,210.5417,59.081,-167.372,1010.6,7.38,-999.0,yes,yes,no,300234068484010,BD2GI,AOML,HEALY,North
2021-07-29T13:59:57Z,2021,14,0,210.5833,210.5833,59.068,-167.375,1010.3,7.41,-999.0,yes,yes,no,300234068484010,BD2GI,AOML,HEALY,North
2021-07-29T15:00:00Z,2021,15,0,210.625,210.625,59.057,-167.389,1010.6,7.45,-999.0,yes,yes,no,300234068484010,BD2GI,AOML,HEALY,North
2021-07-29T16:00:02Z,2021,16,0,210.6667,210.6667,59.051,-167.407,1010.8,7.46,-999.0,yes,yes,no,300234068484010,BD2GI,AOML,HEALY,North
2021-07-29T16:59:57Z,2021,17,0,210.7083,210.7083,59.05,-167.427,1011.0,7.48,-999.0,yes,yes,no,300234068484010,BD2GI,AOML,HEALY,North
2021-07-29T18:00:00Z,2021,18,0,210.75,210.75,59.054,-167.441,1011.1,7.48,-999.0,yes,yes,no,300234068484010,BD2GI,AOML,HEALY,North
2021-07-29T19:00:02Z,2021,19,0,210.7917,210.7917,59.062,-167.448,1011.6,7.46,-999.0,yes,yes,no,300234068484010,BD2GI,AOML,HEALY,North
2021-07-29T19:59:57Z,2021,20,0,210.8333,210.8333,59.072,-167.446,1011.6,7.41,-999.0,yes,yes,no,300234068484010,BD2GI,AOML,HEALY,North
2021-07-29T21:00:00Z,2021,21,0,210.875,210.875,59.081,-167.436,1011.7,7.39,-999.0,yes,yes,no,300234068484010,BD2GI,AOML,HEALY,North
2021-07-29T22:00:02Z,2021,22,0,210.9167,210.9167,59.086,-167.422,1011.9,7.41,-999.0,yes,yes,no,300234068484010,BD2GI,AOML,HEALY,North
2021-07-29T22:59:57Z,2021,23,0,210.9583,210.9583,59.088,-167.409,1012.0,7.41,-999.0,yes,yes,no,300234068484010,BD2GI,AOML,HEALY,North
2021-07-30T00:00:00Z,2021,0,0,211.0,211.0,59.087,-167.4,1012.3,7.45,-999.0,yes,yes,no,300234068484010,BD2GI,AOML,HEALY,North
2021-07-30T01:00:02Z,2021,1,0,211.0417,211.0417,59.082,-167.398,1012.3,7.48,-999.0,yes,yes,no,300234068484010,BD2GI,AOML,HEALY,North
2021-07-30T01:59:57Z,2021,2,0,211.0833,211.0833,59.076,-167.404,1012.3,7.52,-999.0,yes,yes,no,300234068484010,BD2GI,AOML,HEALY,North
2021-07-30T03:00:00Z,2021,3,0,211.125,211.125,59.07,-167.417,1012.3,7.53,-999.0,yes,yes,no,300234068484010,BD2GI,AOML,HEALY,North
2021-07-30T04:00:02Z,2021,4,0,211.1667,211.1667,59.066,-167.437,1012.7,7.52,-999.0,yes,yes,no,300234068484010,BD2GI,AOML,HEALY,North
2021-07-30T04:59:57Z,2021,5,0,211.2083,211.2083,59.066,-167.46,1012.6,7.54,-999.0,yes,yes,no,300234068484010,BD2GI,AOML,HEALY,North
2021-07-30T06:00:00Z,2021,6,0,211.25,211.25,59.07,-167.478,1012.5,7.54,-999.0,yes,yes,no,300234068484010,BD2GI,AOML,HEALY,North
2021-07-30T07:00:02Z,2021,7,0,211.2917,211.2917,59.077,-167.487,1012.0,7.53,-999.0,yes,yes,no,300234068484010,BD2GI,AOML,HEALY,North
2021-07-30T07:59:57Z,2021,8,0,211.3333,211.3333,59.087,-167.485,1012.3,7.52,-999.0,yes,yes,no,300234068484010,BD2GI,AOML,HEALY,North
2021-07-30T09:00:00Z,2021,9,0,211.375,211.375,59.095,-167.474,1012.7,7.5,-999.0,yes,yes,no,300234068484010,BD2GI,AOML,HEALY,North
2021-07-30T10:00:02Z,2021,10,0,211.4167,211.4167,59.1,-167.454,1012.5,7.49,-999.0,yes,yes,no,300234068484010,BD2GI,AOML,HEALY,North
2021-07-30T10:59:57Z,2021,11,0,211.4583,211.4583,59.101,-167.433,1012.3,7.49,-999.0,yes,yes,no,300234068484010,BD2GI,AOML,HEALY,North
2021-07-30T12:00:00Z,2021,12,0,211.5,211.5,59.098,-167.414,1012.1,7.48,-999.0,yes,yes,no,300234068484010,BD2GI,AOML,HEALY,North
2021-07-30T13:00:02Z,2021,13,0,211.5417,211.5417,59.092,-167.402,1011.7,7.5,-999.0,yes,yes,no,300234068484010,BD2GI,AOML,HEALY,North
2021-07-30T13:59:57Z,2021,14,0,211.5833,211.5833,59.084,-167.399,1011.6,7.49,-999.0,yes,yes,no,300234068484010,BD2GI,AOML,HEALY,North
2021-07-30T15:00:00Z,2021,15,0,211.625,211.625,59.075,-167.406,1011.5,7.5,-999.0,yes,yes,no,300234068484010,BD2GI,AOML,HEALY,North
2021-07-30T16:00:02Z,2021,16,0,211.6667,211.6667,59.068,-167.422,1011.2,7.5,-999.0,yes,yes,no,300234068484010,BD2GI,AOML,HEALY,North
2021-07-30T16:59:57Z,2021,17,0,211.7083,211.7083,59.065,-167.443,1011.3,7.51,-999.0,yes,yes,no,300234068484010,BD2GI,AOML,HEALY,North
2021-07-30T18:00:00Z,2021,18,0,211.75,211.75,59.068,-167.463,1011.3,7.53,-999.0,yes,yes,no,300234068484010,BD2GI,AOML,HEALY,North
2021-07-30T19:00:02Z,2021,19,0,211.7917,211.7917,59.076,-167.479,1010.9,7.57,-999.0,yes,yes,no,300234068484010,BD2GI,AOML,HEALY,North
2021-07-30T19:59:57Z,2021,20,0,211.8333,211.8333,59.088,-167.487,1010.7,7.61,-999.0,yes,yes,no,300234068484010,BD2GI,AOML,HEALY,North
2021-07-30T21:00:00Z,2021,21,0,211.875,211.875,59.1,-167.485,1010.5,7.66,-999.0,yes,yes,no,300234068484010,BD2GI,AOML,HEALY,North
2021-07-30T22:00:02Z,2021,22,0,211.9167,211.9167,59.112,-167.476,1009.9,7.7,-999.0,yes,yes,no,300234068484010,BD2GI,AOML,HEALY,North
2021-07-30T22:59:57Z,2021,23,0,211.9583,211.9583,59.12,-167.461,1009.5,7.72,-999.0,yes,yes,no,300234068484010,BD2GI,AOML,HEALY,North
2021-07-31T00:00:00Z,2021,0,0,212.0,212.0,59.124,-167.446,1008.8,7.6,-999.0,yes,yes,no,300234068484010,BD2GI,AOML,HEALY,North
2021-07-31T01:00:02Z,2021,1,0,212.0417,212.0417,59.123,-167.435,1008.0,7.6,-999.0,yes,yes,no,300234068484010,BD2GI,AOML,HEALY,North
2021-07-31T01:59:57Z,2021,2,0,212.0833,212.0833,59.12,-167.43,1007.1,7.59,-999.0,yes,yes,no,300234068484010,BD2GI,AOML,HEALY,North
2021-07-31T03:00:00Z,2021,3,0,212.125,212.125,59.115,-167.432,1006.3,7.6,-999.0,yes,yes,no,300234068484010,BD2GI,AOML,HEALY,North
2021-07-31T04:00:02Z,2021,4,0,212.1667,212.1667,59.11,-167.441,1005.5,7.59,-999.0,yes,yes,no,300234068484010,BD2GI,AOML,HEALY,North
2021-07-31T04:59:57Z,2021,5,0,212.2083,212.2083,59.107,-167.454,1004.4,7.6,-999.0,yes,yes,no,300234068484010,BD2GI,AOML,HEALY,North
2021-07-31T06:00:00Z,2021,6,0,212.25,212.25,59.107,-167.468,1003.6,7.6,-999.0,yes,yes,no,300234068484010,BD2GI,AOML,HEALY,North